CW9774 Weather Reports


time (UTC)temp
C
wind
direction
speed
KPH
gust
KPH
rain 1hr
cm
rain 24hr
cm
rain mn
cm
humidity
%
barometer
mb
20260504151031 16 35 17.7 30.6 0.00 0.00 0.00 62 1004.8
20260504150531 16 355 19.3 33.8 0.00 0.00 0.00 64 1004.8
20260504141032 16 307 22.5 32.2 0.00 0.00 0.00 60 1003.7
20260504140531 16 294 20.9 32.2 0.00 0.00 0.00 61 1003.8
20260504130531 11 250 11.3 19.3 0.00 0.00 0.00 76 1002.7
20260504110531 6 284 4.8 8.0 0.00 0.00 0.00 81 1003.3
20260504100530 7 0 0.0 4.8 0.00 0.00 0.00 77 1003.5
20260504081541 8 0 0.0 0.0 0.00 0.00 0.00 74 1004.4
20260504081030 8 0 0.0 0.0 0.00 0.00 0.00 74 1004.3
20260504080530 8 0 0.0 0.0 0.00 0.00 0.00 74 1004.3
20260504050530 10 0 0.0 0.0 0.00 0.00 0.00 66 1006.4
20260504045530 10 0 0.0 0.0 0.00 0.00 0.00 67 1006.6
20260504045030 10 0 0.0 0.0 0.00 0.00 0.00 68 1006.8
20260504044543 10 0 0.0 0.0 0.00 0.00 0.00 67 1006.8
20260504044030 10 0 0.0 0.0 0.00 0.00 0.00 66 1006.7
20260504043530 10 0 0.0 0.0 0.00 0.00 0.00 65 1006.7
20260504043043 11 0 0.0 0.0 0.00 0.00 0.00 66 1006.8
20260504042530 11 0 0.0 0.0 0.00 0.00 0.00 65 1006.8
20260504042030 11 0 0.0 0.0 0.00 0.00 0.00 65 1006.9
20260504041544 11 0 0.0 0.0 0.00 0.00 0.00 65 1007.1
20260504041029 11 0 0.0 0.0 0.00 0.00 0.00 66 1007.0
20260504040530 11 0 0.0 1.6 0.00 0.00 0.00 66 1007.0
20260504040042 11 0 0.0 3.2 0.00 0.00 0.00 66 1007.1
20260504035533 11 0 0.0 3.2 0.00 0.00 0.00 65 1007.2
20260504035030 11 0 0.0 3.2 0.00 0.00 0.00 59 1007.2
20260504034545 11 0 0.0 0.0 0.00 0.00 0.00 58 1007.3
20260504034030 11 0 0.0 0.0 0.00 0.00 0.00 58 1007.4
20260504033530 12 0 0.0 0.0 0.00 0.00 0.00 58 1007.4
20260504033043 12 0 0.0 0.0 0.00 0.00 0.00 57 1007.4
20260504032530 12 0 0.0 0.0 0.00 0.00 0.00 58 1007.5
20260504032030 12 0 0.0 8.0 0.00 0.00 0.00 58 1007.4
20260504031544 13 0 0.0 8.0 0.00 0.00 0.00 57 1007.5
20260504031029 12 180 1.6 6.4 0.00 0.00 0.00 56 1007.5
20260504030530 12 0 0.0 1.6 0.00 0.00 0.00 56 1007.7
20260504030041 12 0 0.0 1.6 0.00 0.00 0.00 56 1007.7
20260504025530 12 0 0.0 0.0 0.00 0.00 0.00 56 1007.7
20260504025030 13 0 0.0 0.0 0.00 0.00 0.00 56 1007.7
20260504024542 13 0 0.0 0.0 0.00 0.00 0.00 56 1007.7
20260504024032 14 0 0.0 9.7 0.00 0.00 0.00 56 1007.8
20260504023531 14 0 0.0 9.7 0.00 0.00 0.00 55 1007.7
20260504023039 15 83 0.0 8.0 0.00 0.00 0.00 57 1007.7
20260504022530 15 0 0.0 0.0 0.00 0.00 0.00 52 1007.7
20260504022031 15 0 0.0 0.0 0.00 0.00 0.00 48 1007.6
20260504021540 15 0 0.0 0.0 0.00 0.00 0.00 48 1007.5
20260504021030 15 0 0.0 0.0 0.00 0.00 0.00 48 1007.7
20260504020530 15 0 0.0 1.6 0.00 0.00 0.00 47 1007.6
20260504020041 15 0 0.0 1.6 0.00 0.00 0.00 47 1007.6
20260504015530 16 0 0.0 4.8 0.00 0.00 0.00 47 1007.7
20260504015030 16 0 0.0 4.8 0.00 0.00 0.00 48 1007.7
20260504014543 16 0 0.0 0.0 0.00 0.00 0.00 51 1007.8
20260504014031 16 0 0.0 0.0 0.00 0.00 0.00 48 1007.8
20260504013532 17 0 0.0 0.0 0.00 0.00 0.00 47 1007.8
20260504013055 17 0 0.0 0.0 0.00 0.00 0.00 45 1007.9
20260504012530 17 0 0.0 0.0 0.00 0.00 0.00 46 1008.0
20260504012032 18 0 0.0 0.0 0.00 0.00 0.00 47 1008.1
20260504011542 18 0 0.0 0.0 0.00 0.00 0.00 46 1008.1
20260504011032 18 0 0.0 0.0 0.00 0.00 0.00 47 1008.1
20260504010531 18 0 0.0 0.0 0.00 0.00 0.00 45 1008.2
20260504010042 18 0 0.0 3.2 0.00 0.00 0.00 45 1008.3
20260504005529 17 0 0.0 4.8 0.00 0.00 0.00 46 1008.4
20260504005029 17 260 1.6 4.8 0.00 0.00 0.00 49 1008.6
20260504004538 17 260 1.6 6.4 0.00 0.00 0.00 50 1008.6
20260504004030 17 270 3.2 12.9 0.00 0.00 0.00 52 1008.8
20260504003532 18 273 4.8 12.9 0.00 0.00 0.00 49 1008.8
20260504003035 18 245 4.8 12.9 0.00 0.00 0.00 45 1008.8
20260504002530 19 254 6.4 12.9 0.00 0.00 0.00 43 1008.9
20260504002030 20 244 6.4 12.9 0.00 0.00 0.00 44 1008.9
20260504001547 20 246 6.4 12.9 0.00 0.00 0.00 41 1008.9
20260504001030 20 232 4.8 16.1 0.00 0.00 0.00 45 1009.0
20260504000530 20 257 8.0 16.1 0.00 0.00 0.00 42 1009.1
20260504000041 20 263 8.0 16.1 0.00 0.00 0.00 41 1009.1
20260503235529 21 306 4.8 14.5 0.00 0.00 0.00 46 1009.2
20260503235031 20 250 8.0 17.7 0.00 0.00 0.00 41 1009.2
20260503234540 21 255 11.3 17.7 0.00 0.00 0.00 41 1009.3
20260503234032 20 287 4.8 17.7 0.00 0.00 0.00 43 1009.3
20260503233529 21 261 9.7 17.7 0.00 0.00 0.00 44 1009.5
20260503233037 21 248 9.7 17.7 0.00 0.00 0.00 42 1009.5
20260503232530 21 230 9.7 17.7 0.00 0.00 0.00 41 1009.5
20260503232032 21 252 9.7 16.1 0.00 0.00 0.00 40 1009.5
20260503231536 21 305 4.8 12.9 0.00 0.00 0.00 40 1009.5
20260503231034 21 251 4.8 11.3 0.00 0.00 0.00 45 1009.6
20260503230530 21 178 3.2 19.3 0.00 0.00 0.00 37 1009.5
20260503230040 21 248 6.4 19.3 0.00 0.00 0.00 44 1009.5
20260503225530 21 268 8.0 19.3 0.00 0.00 0.00 40 1009.6
20260503225033 21 259 3.2 17.7 0.00 0.00 0.00 46 1009.6
20260503224542 21 254 4.8 17.7 0.00 0.00 0.00 47 1009.6
20260503224032 21 259 8.0 19.3 0.00 0.00 0.00 47 1009.6
20260503223532 21 277 11.3 19.3 0.00 0.00 0.00 39 1009.7
20260503223041 21 300 8.0 19.3 0.00 0.00 0.00 42 1009.7
20260503222532 21 355 6.4 17.7 0.00 0.00 0.00 43 1009.8
20260503222031 21 294 8.0 20.9 0.00 0.00 0.00 43 1009.9
20260503221542 21 232 12.9 22.5 0.00 0.00 0.00 42 1009.9
20260503221031 21 292 12.9 22.5 0.00 0.00 0.00 41 1009.9
20260503220531 21 294 9.7 17.7 0.00 0.00 0.00 41 1009.9
20260503220039 21 298 8.0 24.1 0.00 0.00 0.00 42 1010.0
20260503215531 21 287 9.7 24.1 0.00 0.00 0.00 41 1010.1
20260503215031 21 285 6.4 20.9 0.00 0.00 0.00 41 1010.1
20260503214540 21 205 9.7 20.9 0.00 0.00 0.00 37 1010.1
20260503214031 21 259 9.7 22.5 0.00 0.00 0.00 41 1010.2
20260503213531 21 277 11.3 22.5 0.00 0.00 0.00 36 1010.3
20260503213044 21 308 11.3 16.1 0.00 0.00 0.00 38 1010.3
20260503212531 21 205 4.8 11.3 0.00 0.00 0.00 39 1010.3
20260503212030 21 197 4.8 14.5 0.00 0.00 0.00 38 1010.4
20260503211541 21 271 4.8 16.1 0.00 0.00 0.00 36 1010.4
20260503211030 21 350 9.7 16.1 0.00 0.00 0.00 38 1010.7
20260503210531 21 296 6.4 16.1 0.00 0.00 0.00 41 1010.7
20260503210039 21 344 6.4 16.1 0.00 0.00 0.00 38 1010.9
20260503205531 21 338 6.4 16.1 0.00 0.00 0.00 41 1010.9
20260503205032 21 327 6.4 16.1 0.00 0.00 0.00 43 1010.9
20260503204541 21 234 8.0 20.9 0.00 0.00 0.00 46 1011.0
20260503204034 21 228 6.4 20.9 0.00 0.00 0.00 38 1011.0
20260503203533 21 288 14.5 20.9 0.00 0.00 0.00 43 1011.2
20260503203041 21 294 6.4 24.1 0.00 0.00 0.00 39 1011.1
20260503202531 21 238 11.3 24.1 0.00 0.00 0.00 43 1011.3
20260503202031 21 333 9.7 22.5 0.00 0.00 0.00 43 1011.2
20260503201538 21 327 14.5 22.5 0.00 0.00 0.00 41 1011.3
20260503201030 21 319 11.3 24.1 0.00 0.00 0.00 38 1011.3
20260503200530 21 360 14.5 24.1 0.00 0.00 0.00 36 1011.4
20260503200042 21 36 6.4 24.1 0.00 0.00 0.00 36 1011.4
20260503195531 21 282 9.7 20.9 0.00 0.00 0.00 42 1011.5
20260503195030 21 258 1.6 16.1 0.00 0.00 0.00 38 1011.6
20260503194548 21 355 3.2 16.1 0.00 0.00 0.00 37 1011.6
20260503194031 21 306 3.2 14.5 0.00 0.00 0.00 40 1011.6
20260503193531 20 153 6.4 19.3 0.00 0.00 0.00 37 1011.7
20260503193049 20 284 12.9 22.5 0.00 0.00 0.00 42 1011.7
20260503192529 21 279 12.9 24.1 0.00 0.00 0.00 40 1011.8
20260503192034 21 302 1.6 24.1 0.00 0.00 0.00 38 1011.7
20260503191607 21 315 11.3 24.1 0.00 0.00 0.00 42 1011.9
20260503191033 21 30 6.4 19.3 0.00 0.00 0.00 38 1011.9
20260503190532 20 0 3.2 19.3 0.00 0.00 0.00 37 1012.0
20260503190039 20 277 11.3 19.3 0.00 0.00 0.00 41 1012.1
20260503185530 20 271 12.9 19.3 0.00 0.00 0.00 45 1012.1
20260503185029 20 298 4.8 19.3 0.00 0.00 0.00 40 1012.1
20260503184544 20 54 3.2 16.1 0.00 0.00 0.00 37 1012.3
20260503184029 20 355 4.8 19.3 0.00 0.00 0.00 42 1012.3
20260503183532 20 281 8.0 22.5 0.00 0.00 0.00 41 1012.4
20260503183046 20 337 9.7 22.5 0.00 0.00 0.00 39 1012.5
20260503182528 20 360 12.9 22.5 0.00 0.00 0.00 41 1012.6
20260503182029 20 19 6.4 17.7 0.00 0.00 0.00 39 1012.5
20260503181548 20 316 9.7 17.7 0.00 0.00 0.00 44 1012.7
20260503181030 20 304 4.8 20.9 0.00 0.00 0.00 40 1012.8
20260503180530 20 33 6.4 20.9 0.00 0.00 0.00 44 1012.9
20260503180042 20 340 12.9 20.9 0.00 0.00 0.00 44 1013.0
20260503175535 20 251 8.0 16.1 0.00 0.00 0.00 45 1012.9
20260503175032 20 302 4.8 17.7 0.00 0.00 0.00 41 1013.0
20260503174546 20 315 11.3 17.7 0.00 0.00 0.00 42 1013.0
20260503174028 20 269 4.8 16.1 0.00 0.00 0.00 41 1013.3
20260503173529 20 229 9.7 16.1 0.00 0.00 0.00 43 1013.2
20260503173038 20 302 1.6 14.5 0.00 0.00 0.00 44 1013.3
20260503172529 19 52 1.6 19.3 0.00 0.00 0.00 42 1013.3
20260503172029 19 342 8.0 19.3 0.00 0.00 0.00 43 1013.5
20260503171536 19 323 4.8 14.5 0.00 0.00 0.00 43 1013.5
20260503171030 18 294 4.8 14.5 0.00 0.00 0.00 46 1013.6
20260503170530 18 22 3.2 17.7 0.00 0.00 0.00 43 1013.5